Time,TemperatureF,DewpointF,PressureIn,WindDirection,WindDirectionDegrees,WindSpeedMPH,WindSpeedGustMPH,Humidity,HourlyPrecipIn,Conditions,Clouds,dailyrainin,SoftwareType,DateUTC
2013-02-22 00:00:00,28.8,18.5,30.32,NE,44,0.0,1.0,65,0.00,,---,0.00,VWS V14.01,2013-02-22 05:00:00,
2013-02-22 00:05:00,28.8,18.5,30.32,NE,44,0.0,0.0,65,0.00,,---,0.00,VWS V14.01,2013-02-22 05:05:00,
2013-02-22 00:10:00,28.6,17.6,30.33,SE,144,4.0,4.0,63,0.00,,---,0.00,VWS V14.01,2013-02-22 05:10:00,
2013-02-22 00:15:00,28.8,17.8,30.33,SE,145,2.0,2.0,63,0.00,,---,0.00,VWS V14.01,2013-02-22 05:15:00,
2013-02-22 00:20:00,28.8,17.8,30.33,SE,145,0.0,1.0,63,0.00,,---,0.00,VWS V14.01,2013-02-22 05:20:00,
2013-02-22 00:25:00,28.8,17.8,30.34,SE,146,2.0,2.0,63,0.00,,---,0.00,VWS V14.01,2013-02-22 05:25:00,
2013-02-22 00:30:00,28.8,17.4,30.34,SE,146,0.0,1.0,62,0.00,,---,0.00,VWS V14.01,2013-02-22 05:30:00,
2013-02-22 00:35:00,28.8,18.5,30.34,SE,145,1.0,2.0,65,0.00,,---,0.00,VWS V14.01,2013-02-22 05:35:00,
2013-02-22 00:40:00,28.8,18.5,30.33,SE,145,0.0,0.0,65,0.00,,---,0.00,VWS V14.01,2013-02-22 05:40:00,
2013-02-22 00:45:00,28.8,18.5,30.33,SE,146,0.0,0.0,65,0.00,,---,0.00,VWS V14.01,2013-02-22 05:45:00,
2013-02-22 00:50:00,28.8,18.5,30.33,SE,146,0.0,0.0,65,0.00,,---,0.00,VWS V14.01,2013-02-22 05:50:00,
2013-02-22 00:55:00,28.8,18.5,30.33,SE,146,0.0,0.0,65,0.00,,---,0.00,VWS V14.01,2013-02-22 05:55:00,
2013-02-22 01:00:00,28.6,19.0,30.33,SE,146,1.0,2.0,67,0.00,,---,0.00,VWS V14.01,2013-02-22 06:00:00,
2013-02-22 01:05:00,28.6,18.7,30.33,SE,146,0.0,1.0,66,0.00,,---,0.00,VWS V14.01,2013-02-22 06:05:00,
2013-02-22 01:10:00,28.5,18.2,30.34,SE,146,0.0,0.0,65,0.00,,---,0.00,VWS V14.01,2013-02-22 06:10:00,
2013-02-22 01:15:00,28.5,18.2,30.34,SE,146,2.0,2.0,65,0.00,,---,0.00,VWS V14.01,2013-02-22 06:15:00,
2013-02-22 01:20:00,28.4,18.1,30.34,SE,146,0.0,1.0,65,0.00,,---,0.00,VWS V14.01,2013-02-22 06:20:00,
2013-02-22 01:25:00,28.4,18.1,30.35,SE,146,0.0,0.0,65,0.00,,---,0.00,VWS V14.01,2013-02-22 06:25:00,
2013-02-22 01:30:00,28.4,18.1,30.35,SE,146,0.0,0.0,65,0.00,,---,0.00,VWS V14.01,2013-02-22 06:30:00,
2013-02-22 01:35:00,28.5,18.6,30.35,SE,146,1.0,2.0,66,0.00,,---,0.00,VWS V14.01,2013-02-22 06:35:00,
2013-02-22 01:40:00,28.5,18.6,30.35,SE,146,3.0,3.0,66,0.00,,---,0.00,VWS V14.01,2013-02-22 06:40:00,
2013-02-22 01:45:00,28.5,18.6,30.35,SE,146,0.0,1.0,66,0.00,,---,0.00,VWS V14.01,2013-02-22 06:45:00,
2013-02-22 01:50:00,28.5,19.3,30.35,SE,146,0.0,1.0,68,0.00,,---,0.00,VWS V14.01,2013-02-22 06:50:00,
2013-02-22 01:55:00,28.6,19.4,30.36,SE,146,0.0,0.0,68,0.00,,---,0.00,VWS V14.01,2013-02-22 06:55:00,
2013-02-22 02:00:00,28.5,19.0,30.36,SE,146,0.0,0.0,67,0.00,,---,0.00,VWS V14.01,2013-02-22 07:00:00,
2013-02-22 02:05:00,28.5,18.6,30.36,SE,146,0.0,0.0,66,0.00,,---,0.00,VWS V14.01,2013-02-22 07:05:00,
2013-02-22 02:10:00,28.5,18.6,30.37,SE,146,0.0,1.0,66,0.00,,---,0.00,VWS V14.01,2013-02-22 07:10:00,
2013-02-22 02:14:00,28.6,19.0,30.37,SE,146,0.0,2.0,67,0.00,,---,0.00,VWS V14.01,2013-02-22 07:14:00,
2013-02-22 02:15:00,28.6,19.0,30.36,SE,146,0.0,0.0,67,0.00,,---,0.00,VWS V14.01,2013-02-22 07:15:00,
2013-02-22 02:19:00,28.6,19.0,30.37,SE,146,0.0,0.0,67,0.00,,---,0.00,VWS V14.01,2013-02-22 07:19:00,
2013-02-22 02:20:00,28.6,19.4,30.36,SE,146,0.0,0.0,68,0.00,,---,0.00,VWS V14.01,2013-02-22 07:20:00,
2013-02-22 02:24:00,28.6,19.4,30.36,SE,146,0.0,0.0,68,0.00,,---,0.00,VWS V14.01,2013-02-22 07:24:00,
2013-02-22 02:25:00,28.6,19.7,30.36,SE,146,0.0,0.0,69,0.00,,---,0.00,VWS V14.01,2013-02-22 07:25:00,
2013-02-22 02:29:00,28.6,19.7,30.36,SE,146,0.0,0.0,69,0.00,,---,0.00,VWS V14.01,2013-02-22 07:29:00,
2013-02-22 02:30:00,28.6,19.4,30.36,SE,146,1.0,2.0,68,0.00,,---,0.00,VWS V14.01,2013-02-22 07:30:00,
2013-02-22 02:34:00,28.6,19.7,30.36,SE,146,1.0,1.0,69,0.00,,---,0.00,VWS V14.01,2013-02-22 07:34:00,
2013-02-22 02:35:00,28.6,19.4,30.36,SE,146,0.0,1.0,68,0.00,,---,0.00,VWS V14.01,2013-02-22 07:35:00,
2013-02-22 02:39:00,28.6,19.7,30.36,SE,146,1.0,1.0,69,0.00,,---,0.00,VWS V14.01,2013-02-22 07:39:00,
2013-02-22 02:40:00,28.6,19.4,30.36,SE,146,0.0,0.0,68,0.00,,---,0.00,VWS V14.01,2013-02-22 07:40:00,
2013-02-22 02:44:00,28.6,19.4,30.36,SE,146,0.0,0.0,68,0.00,,---,0.00,VWS V14.01,2013-02-22 07:44:00,
2013-02-22 02:45:00,28.6,19.7,30.35,SE,146,0.0,0.0,69,0.00,,---,0.00,VWS V14.01,2013-02-22 07:45:00,
2013-02-22 02:49:00,28.6,19.7,30.36,SE,146,0.0,0.0,69,0.00,,---,0.00,VWS V14.01,2013-02-22 07:49:00,
2013-02-22 02:50:00,28.6,20.1,30.35,SE,146,0.0,0.0,70,0.00,,---,0.00,VWS V14.01,2013-02-22 07:50:00,
2013-02-22 02:54:00,28.6,19.7,30.35,SE,146,0.0,0.0,69,0.00,,---,0.00,VWS V14.01,2013-02-22 07:54:00,
2013-02-22 02:55:00,28.6,20.1,30.35,SE,146,0.0,2.0,70,0.00,,---,0.00,VWS V14.01,2013-02-22 07:55:00,
2013-02-22 02:59:00,28.6,20.1,30.35,SE,146,0.0,0.0,70,0.00,,---,0.00,VWS V14.01,2013-02-22 07:59:00,
2013-02-22 03:00:00,28.6,19.7,30.36,SE,146,0.0,0.0,69,0.00,,---,0.00,VWS V14.01,2013-02-22 08:00:00,
2013-02-22 03:04:00,28.6,19.7,30.35,SE,146,0.0,0.0,69,0.00,,---,0.00,VWS V14.01,2013-02-22 08:04:00,
2013-02-22 03:05:00,28.6,19.4,30.36,SE,146,0.0,0.0,68,0.00,,---,0.00,VWS V14.01,2013-02-22 08:05:00,
2013-02-22 03:09:00,28.6,19.7,30.36,SE,146,0.0,0.0,69,0.00,,---,0.00,VWS V14.01,2013-02-22 08:09:00,
2013-02-22 03:10:00,28.6,19.4,30.36,SE,146,0.0,0.0,68,0.00,,---,0.00,VWS V14.01,2013-02-22 08:10:00,
2013-02-22 03:14:00,28.6,19.4,30.36,SE,146,0.0,0.0,68,0.00,,---,0.00,VWS V14.01,2013-02-22 08:14:00,
2013-02-22 03:15:00,28.6,19.0,30.36,SE,146,0.0,1.0,67,0.00,,---,0.00,VWS V14.01,2013-02-22 08:15:00,
2013-02-22 03:19:00,28.6,19.4,30.36,SE,146,0.0,0.0,68,0.00,,---,0.00,VWS V14.01,2013-02-22 08:19:00,
2013-02-22 03:20:00,28.6,19.0,30.36,SE,146,0.0,0.0,67,0.00,,---,0.00,VWS V14.01,2013-02-22 08:20:00,
2013-02-22 03:24:00,28.6,18.7,30.36,SE,146,0.0,0.0,66,0.00,,---,0.00,VWS V14.01,2013-02-22 08:24:00,
2013-02-22 03:25:00,28.8,20.3,30.36,SE,146,2.0,2.0,70,0.00,,---,0.00,VWS V14.01,2013-02-22 08:25:00,
2013-02-22 03:29:00,28.6,19.0,30.36,SE,146,1.0,2.0,67,0.00,,---,0.00,VWS V14.01,2013-02-22 08:29:00,
2013-02-22 03:30:00,28.8,20.9,30.36,SE,146,0.0,2.0,72,0.00,,---,0.00,VWS V14.01,2013-02-22 08:30:00,
2013-02-22 03:34:00,28.8,20.6,30.36,SE,146,1.0,2.0,71,0.00,,---,0.00,VWS V14.01,2013-02-22 08:34:00,
2013-02-22 03:35:00,28.6,21.1,30.36,SE,146,0.0,0.0,73,0.00,,---,0.00,VWS V14.01,2013-02-22 08:35:00,
2013-02-22 03:39:00,28.8,21.2,30.36,SE,146,0.0,0.0,73,0.00,,---,0.00,VWS V14.01,2013-02-22 08:39:00,
2013-02-22 03:40:00,28.6,20.7,30.36,SE,146,0.0,1.0,72,0.00,,---,0.00,VWS V14.01,2013-02-22 08:40:00,
2013-02-22 03:44:00,28.6,20.7,30.36,SE,146,0.0,0.0,72,0.00,,---,0.00,VWS V14.01,2013-02-22 08:44:00,
2013-02-22 03:45:00,28.6,20.4,30.36,SE,146,0.0,1.0,71,0.00,,---,0.00,VWS V14.01,2013-02-22 08:45:00,
2013-02-22 03:49:00,28.6,20.4,30.36,SE,146,0.0,1.0,71,0.00,,---,0.00,VWS V14.01,2013-02-22 08:49:00,
2013-02-22 03:50:00,28.6,20.4,30.36,SE,146,0.0,0.0,71,0.00,,---,0.00,VWS V14.01,2013-02-22 08:50:00,
2013-02-22 03:54:00,28.6,20.4,30.36,SE,146,0.0,0.0,71,0.00,,---,0.00,VWS V14.01,2013-02-22 08:54:00,
2013-02-22 03:55:00,28.6,20.7,30.36,SE,146,0.0,0.0,72,0.00,,---,0.00,VWS V14.01,2013-02-22 08:55:00,
2013-02-22 03:59:00,28.6,20.7,30.36,SE,146,0.0,0.0,72,0.00,,---,0.00,VWS V14.01,2013-02-22 08:59:00,
2013-02-22 04:00:00,28.6,20.7,30.35,SE,146,0.0,0.0,72,0.00,,---,0.00,VWS V14.01,2013-02-22 09:00:00,
2013-02-22 04:04:00,28.6,20.7,30.36,SE,146,0.0,0.0,72,0.00,,---,0.00,VWS V14.01,2013-02-22 09:04:00,
2013-02-22 04:05:00,28.6,20.4,30.35,SE,146,0.0,0.0,71,0.00,,---,0.00,VWS V14.01,2013-02-22 09:05:00,
2013-02-22 04:09:00,28.6,20.7,30.35,SE,146,0.0,0.0,72,0.00,,---,0.00,VWS V14.01,2013-02-22 09:09:00,
2013-02-22 04:10:00,28.6,20.4,30.35,SE,146,3.0,3.0,71,0.00,,---,0.00,VWS V14.01,2013-02-22 09:10:00,
2013-02-22 04:14:00,28.6,20.4,30.35,SE,146,0.0,0.0,71,0.00,,---,0.00,VWS V14.01,2013-02-22 09:14:00,
2013-02-22 04:15:00,28.8,20.9,30.32,SE,146,1.0,3.0,72,0.00,,---,0.00,VWS V14.01,2013-02-22 09:15:00,
2013-02-22 04:19:00,28.8,20.9,30.35,SE,146,3.0,3.0,72,0.00,,---,0.00,VWS V14.01,2013-02-22 09:19:00,
2013-02-22 04:20:00,28.8,19.9,30.32,SE,146,0.0,3.0,69,0.00,,---,0.00,VWS V14.01,2013-02-22 09:20:00,
2013-02-22 04:24:00,28.8,20.6,30.32,SE,146,2.0,3.0,71,0.00,,---,0.00,VWS V14.01,2013-02-22 09:24:00,
2013-02-22 04:25:00,28.8,19.2,30.32,SE,146,1.0,2.0,67,0.00,,---,0.00,VWS V14.01,2013-02-22 09:25:00,
2013-02-22 04:29:00,28.8,19.6,30.32,SE,146,0.0,2.0,68,0.00,,---,0.00,VWS V14.01,2013-02-22 09:29:00,
2013-02-22 04:30:00,28.9,19.3,30.32,SE,126,2.0,4.0,67,0.00,,---,0.00,VWS V14.01,2013-02-22 09:30:00,
2013-02-22 04:34:00,28.8,19.6,30.32,SE,146,1.0,2.0,68,0.00,,---,0.00,VWS V14.01,2013-02-22 09:34:00,
2013-02-22 04:35:00,29.1,18.8,30.32,SE,126,4.0,4.0,65,0.00,,---,0.00,VWS V14.01,2013-02-22 09:35:00,
2013-02-22 04:39:00,28.9,19.3,30.32,SE,126,1.0,2.0,67,0.00,,---,0.00,VWS V14.01,2013-02-22 09:39:00,
2013-02-22 04:40:00,29.2,18.2,30.32,SE,126,2.0,4.0,63,0.00,,---,0.00,VWS V14.01,2013-02-22 09:40:00,
2013-02-22 04:44:00,29.1,18.8,30.32,SE,126,3.0,4.0,65,0.00,,---,0.00,VWS V14.01,2013-02-22 09:44:00,
2013-02-22 04:45:00,29.2,18.5,30.32,SE,126,2.0,3.0,64,0.00,,---,0.00,VWS V14.01,2013-02-22 09:45:00,
2013-02-22 04:49:00,29.2,18.2,30.32,SE,126,1.0,2.0,63,0.00,,---,0.00,VWS V14.01,2013-02-22 09:49:00,
2013-02-22 04:50:00,29.4,18.4,30.32,SE,126,4.0,4.0,63,0.00,,---,0.00,VWS V14.01,2013-02-22 09:50:00,
2013-02-22 04:54:00,29.4,18.7,30.32,SE,126,1.0,3.0,64,0.00,,---,0.00,VWS V14.01,2013-02-22 09:54:00,
2013-02-22 04:55:00,29.4,18.0,30.32,SE,126,2.0,4.0,62,0.00,,---,0.00,VWS V14.01,2013-02-22 09:55:00,
2013-02-22 04:59:00,29.4,18.4,30.32,SE,126,2.0,4.0,63,0.00,,---,0.00,VWS V14.01,2013-02-22 09:59:00,
2013-02-22 05:00:00,29.5,18.1,30.32,SE,126,2.0,3.0,62,0.00,,---,0.00,VWS V14.01,2013-02-22 10:00:00,
2013-02-22 05:04:00,29.5,18.1,30.32,SE,126,2.0,3.0,62,0.00,,---,0.00,VWS V14.01,2013-02-22 10:04:00,
2013-02-22 05:05:00,29.5,17.7,30.32,SE,126,0.0,2.0,61,0.00,,---,0.00,VWS V14.01,2013-02-22 10:05:00,
2013-02-22 05:09:00,29.5,17.7,30.32,SE,126,0.0,2.0,61,0.00,,---,0.00,VWS V14.01,2013-02-22 10:09:00,
2013-02-22 05:10:00,29.7,18.3,30.32,SE,126,3.0,4.0,62,0.00,,---,0.00,VWS V14.01,2013-02-22 10:10:00,
2013-02-22 05:14:00,29.5,17.7,30.32,SE,126,2.0,2.0,61,0.00,,---,0.00,VWS V14.01,2013-02-22 10:14:00,
2013-02-22 05:15:00,29.7,17.9,30.31,SE,126,5.0,5.0,61,0.00,,---,0.00,VWS V14.01,2013-02-22 10:15:00,
2013-02-22 05:19:00,29.7,18.3,30.32,SE,126,3.0,4.0,62,0.00,,---,0.00,VWS V14.01,2013-02-22 10:19:00,
2013-02-22 05:20:00,29.7,17.5,30.31,SE,126,0.0,5.0,60,0.00,,---,0.00,VWS V14.01,2013-02-22 10:20:00,
2013-02-22 05:24:00,29.7,17.5,30.31,SE,126,3.0,5.0,60,0.00,,---,0.00,VWS V14.01,2013-02-22 10:24:00,
2013-02-22 05:25:00,29.8,17.6,30.31,SE,126,0.0,1.0,60,0.00,,---,0.00,VWS V14.01,2013-02-22 10:25:00,
2013-02-22 05:29:00,29.7,17.5,30.31,SE,126,1.0,1.0,60,0.00,,---,0.00,VWS V14.01,2013-02-22 10:29:00,
2013-02-22 05:30:00,29.8,17.6,30.33,SE,126,0.0,0.0,60,0.00,,---,0.00,VWS V14.01,2013-02-22 10:30:00,
2013-02-22 05:34:00,29.8,17.6,30.31,SE,126,0.0,0.0,60,0.00,,---,0.00,VWS V14.01,2013-02-22 10:34:00,
2013-02-22 05:35:00,29.8,17.6,30.33,SE,126,0.0,0.0,60,0.00,,---,0.00,VWS V14.01,2013-02-22 10:35:00,
2013-02-22 05:39:00,29.8,17.6,30.33,SE,126,0.0,0.0,60,0.00,,---,0.00,VWS V14.01,2013-02-22 10:39:00,
2013-02-22 05:40:00,29.8,18.0,30.33,SE,126,0.0,0.0,61,0.00,,---,0.00,VWS V14.01,2013-02-22 10:40:00,
2013-02-22 05:44:00,29.8,17.6,30.33,SE,126,0.0,0.0,60,0.00,,---,0.00,VWS V14.01,2013-02-22 10:44:00,
2013-02-22 05:45:00,29.8,19.1,30.35,SE,126,1.0,2.0,64,0.00,,---,0.00,VWS V14.01,2013-02-22 10:45:00,
2013-02-22 05:49:00,29.8,18.8,30.33,SE,126,1.0,2.0,63,0.00,,---,0.00,VWS V14.01,2013-02-22 10:49:00,
2013-02-22 05:50:00,29.8,19.1,30.35,SE,126,1.0,2.0,64,0.00,,---,0.00,VWS V14.01,2013-02-22 10:50:00,
2013-02-22 05:54:00,29.8,19.1,30.35,SE,126,2.0,2.0,64,0.00,,---,0.00,VWS V14.01,2013-02-22 10:54:00,
2013-02-22 05:55:00,29.8,19.1,30.35,SE,126,0.0,2.0,64,0.00,,---,0.00,VWS V14.01,2013-02-22 10:55:00,
2013-02-22 05:59:00,29.8,19.5,30.35,SE,126,1.0,2.0,65,0.00,,---,0.00,VWS V14.01,2013-02-22 10:59:00,
2013-02-22 06:00:00,29.8,19.1,30.35,SE,126,0.0,0.0,64,0.00,,---,0.00,VWS V14.01,2013-02-22 11:00:00,
2013-02-22 06:04:00,29.8,19.1,30.35,SE,126,0.0,0.0,64,0.00,,---,0.00,VWS V14.01,2013-02-22 11:04:00,
2013-02-22 06:05:00,29.8,18.8,30.35,SE,126,0.0,0.0,63,0.00,,---,0.00,VWS V14.01,2013-02-22 11:05:00,
2013-02-22 06:09:00,29.8,19.1,30.35,SE,126,0.0,0.0,64,0.00,,---,0.00,VWS V14.01,2013-02-22 11:09:00,
2013-02-22 06:10:00,29.8,19.1,30.35,SE,126,0.0,0.0,64,0.00,,---,0.00,VWS V14.01,2013-02-22 11:10:00,
2013-02-22 06:14:00,29.8,19.1,30.35,SE,126,0.0,0.0,64,0.00,,---,0.00,VWS V14.01,2013-02-22 11:14:00,
2013-02-22 06:15:00,29.8,19.5,30.34,SE,126,0.0,1.0,65,0.00,,---,0.00,VWS V14.01,2013-02-22 11:15:00,
2013-02-22 06:19:00,29.8,19.1,30.35,SE,126,0.0,0.0,64,0.00,,---,0.00,VWS V14.01,2013-02-22 11:19:00,
2013-02-22 06:20:00,29.8,18.8,30.34,SE,126,0.0,1.0,63,0.00,,---,0.00,VWS V14.01,2013-02-22 11:20:00,
2013-02-22 06:24:00,29.8,19.5,30.34,SE,126,0.0,0.0,65,0.00,,---,0.00,VWS V14.01,2013-02-22 11:24:00,
2013-02-22 06:25:00,29.8,18.8,30.34,SE,126,0.0,0.0,63,0.00,,---,0.00,VWS V14.01,2013-02-22 11:25:00,
2013-02-22 06:29:00,29.8,18.8,30.34,SE,126,0.0,0.0,63,0.00,,---,0.00,VWS V14.01,2013-02-22 11:29:00,
2013-02-22 06:30:00,29.7,18.3,30.34,SE,126,0.0,0.0,62,0.00,,---,0.00,VWS V14.01,2013-02-22 11:30:00,
2013-02-22 06:34:00,29.7,18.7,30.34,SE,126,0.0,0.0,63,0.00,,---,0.00,VWS V14.01,2013-02-22 11:34:00,
2013-02-22 06:35:00,29.7,17.9,30.34,SE,126,0.0,0.0,61,0.00,,---,0.00,VWS V14.01,2013-02-22 11:35:00,
2013-02-22 06:39:00,29.7,18.3,30.34,SE,126,0.0,0.0,62,0.00,,---,0.00,VWS V14.01,2013-02-22 11:39:00,
2013-02-22 06:40:00,29.7,17.5,30.34,SE,126,0.0,0.0,60,0.00,,---,0.00,VWS V14.01,2013-02-22 11:40:00,
2013-02-22 06:44:00,29.7,17.9,30.34,SE,126,0.0,0.0,61,0.00,,---,0.00,VWS V14.01,2013-02-22 11:44:00,
2013-02-22 06:45:00,29.7,17.5,30.34,SE,126,0.0,0.0,60,0.00,,---,0.00,VWS V14.01,2013-02-22 11:45:00,
2013-02-22 06:49:00,29.7,17.5,30.34,SE,126,0.0,0.0,60,0.00,,---,0.00,VWS V14.01,2013-02-22 11:49:00,
2013-02-22 06:50:00,29.8,18.0,30.34,SE,126,0.0,0.0,61,0.00,,---,0.00,VWS V14.01,2013-02-22 11:50:00,
2013-02-22 06:54:00,29.7,17.9,30.34,SE,126,0.0,0.0,61,0.00,,---,0.00,VWS V14.01,2013-02-22 11:54:00,
2013-02-22 06:55:00,29.8,18.4,30.34,SE,126,0.0,0.0,62,0.00,,---,0.00,VWS V14.01,2013-02-22 11:55:00,
2013-02-22 06:59:00,29.8,18.4,30.34,SE,126,0.0,0.0,62,0.00,,---,0.00,VWS V14.01,2013-02-22 11:59:00,
2013-02-22 07:00:00,29.8,18.8,30.34,SE,126,0.0,0.0,63,0.00,,---,0.00,VWS V14.01,2013-02-22 12:00:00,
2013-02-22 07:04:00,29.8,18.4,30.34,SE,126,0.0,0.0,62,0.00,,---,0.00,VWS V14.01,2013-02-22 12:04:00,
2013-02-22 07:05:00,29.7,19.0,30.34,SE,126,0.0,0.0,64,0.00,,---,0.00,VWS V14.01,2013-02-22 12:05:00,
2013-02-22 07:09:00,29.7,18.7,30.34,SE,126,0.0,0.0,63,0.00,,---,0.00,VWS V14.01,2013-02-22 12:09:00,
2013-02-22 07:10:00,29.7,19.4,30.34,SE,126,0.0,0.0,65,0.00,,---,0.00,VWS V14.01,2013-02-22 12:10:00,
2013-02-22 07:14:00,29.7,19.0,30.34,SE,126,0.0,0.0,64,0.00,,---,0.00,VWS V14.01,2013-02-22 12:14:00,
2013-02-22 07:15:00,29.7,19.4,30.34,SE,126,3.0,3.0,65,0.00,,---,0.00,VWS V14.01,2013-02-22 12:15:00,
2013-02-22 07:19:00,29.7,19.4,30.34,SE,126,0.0,0.0,65,0.00,,---,0.00,VWS V14.01,2013-02-22 12:19:00,
2013-02-22 07:20:00,29.7,19.0,30.34,SE,126,2.0,3.0,64,0.00,,---,0.00,VWS V14.01,2013-02-22 12:20:00,
2013-02-22 07:24:00,29.7,19.0,30.34,SE,126,0.0,3.0,64,0.00,,---,0.00,VWS V14.01,2013-02-22 12:24:00,
2013-02-22 07:25:00,29.7,19.0,30.34,SE,126,1.0,2.0,64,0.00,,---,0.00,VWS V14.01,2013-02-22 12:25:00,
2013-02-22 07:29:00,29.7,18.7,30.34,SE,126,1.0,2.0,63,0.00,,---,0.00,VWS V14.01,2013-02-22 12:29:00,
2013-02-22 07:30:00,29.5,18.8,30.33,SE,126,4.0,6.0,64,0.00,,---,0.00,VWS V14.01,2013-02-22 12:30:00,
2013-02-22 07:34:00,29.5,18.8,30.34,SE,126,5.0,5.0,64,0.00,,---,0.00,VWS V14.01,2013-02-22 12:34:00,
2013-02-22 07:35:00,29.4,19.1,30.33,SE,126,1.0,4.0,65,0.00,,---,0.00,VWS V14.01,2013-02-22 12:35:00,
2013-02-22 07:39:00,29.5,19.2,30.33,SE,126,1.0,4.0,65,0.00,,---,0.00,VWS V14.01,2013-02-22 12:39:00,
2013-02-22 07:40:00,29.4,19.8,30.33,SE,126,1.0,3.0,67,0.00,,---,0.00,VWS V14.01,2013-02-22 12:40:00,
2013-02-22 07:44:00,29.4,19.1,30.33,SE,126,3.0,3.0,65,0.00,,---,0.00,VWS V14.01,2013-02-22 12:44:00,
2013-02-22 07:45:00,29.2,19.6,30.33,SE,126,1.0,4.0,67,0.00,,---,0.00,VWS V14.01,2013-02-22 12:45:00,
2013-02-22 07:49:00,29.2,19.6,30.33,SE,126,1.0,1.0,67,0.00,,---,0.00,VWS V14.01,2013-02-22 12:49:00,
2013-02-22 07:50:00,29.1,19.5,30.33,SE,126,1.0,3.0,67,0.00,,---,0.00,VWS V14.01,2013-02-22 12:50:00,
2013-02-22 07:54:00,29.2,19.6,30.33,SE,126,2.0,3.0,67,0.00,,---,0.00,VWS V14.01,2013-02-22 12:54:00,
2013-02-22 07:55:00,29.1,19.5,30.33,SE,126,0.0,4.0,67,0.00,,---,0.00,VWS V14.01,2013-02-22 12:55:00,
2013-02-22 07:59:00,29.1,19.5,30.33,SE,126,1.0,2.0,67,0.00,,---,0.00,VWS V14.01,2013-02-22 12:59:00,
2013-02-22 08:00:00,29.1,19.2,30.33,SE,126,3.0,3.0,66,0.00,,---,0.00,VWS V14.01,2013-02-22 13:00:00,
2013-02-22 08:04:00,29.1,19.5,30.33,SE,126,1.0,1.0,67,0.00,,---,0.00,VWS V14.01,2013-02-22 13:04:00,
2013-02-22 08:05:00,29.2,18.9,30.33,SE,128,5.0,6.0,65,0.00,,---,0.00,VWS V14.01,2013-02-22 13:05:00,
2013-02-22 08:09:00,29.1,19.2,30.33,ESE,111,4.0,6.0,66,0.00,,---,0.00,VWS V14.01,2013-02-22 13:09:00,
2013-02-22 08:10:00,29.2,18.9,30.33,SE,130,4.0,5.0,65,0.00,,---,0.00,VWS V14.01,2013-02-22 13:10:00,
2013-02-22 08:14:00,29.2,18.9,30.33,SE,129,3.0,5.0,65,0.00,,---,0.00,VWS V14.01,2013-02-22 13:14:00,
2013-02-22 08:15:00,29.2,18.9,30.33,ESE,113,4.0,6.0,65,0.00,,---,0.00,VWS V14.01,2013-02-22 13:15:00,
2013-02-22 08:19:00,29.2,18.9,30.33,SE,130,4.0,5.0,65,0.00,,---,0.00,VWS V14.01,2013-02-22 13:19:00,
2013-02-22 08:20:00,29.4,19.1,30.33,ESE,113,4.0,6.0,65,0.00,,---,0.00,VWS V14.01,2013-02-22 13:20:00,
2013-02-22 08:24:00,29.2,18.9,30.33,ESE,112,4.0,6.0,65,0.00,,---,0.00,VWS V14.01,2013-02-22 13:24:00,
2013-02-22 08:25:00,29.4,19.1,30.33,SE,138,4.0,7.0,65,0.00,,---,0.00,VWS V14.01,2013-02-22 13:25:00,
2013-02-22 08:29:00,29.4,19.1,30.33,ESE,116,4.0,5.0,65,0.00,,---,0.00,VWS V14.01,2013-02-22 13:29:00,
2013-02-22 08:30:00,29.4,18.7,30.34,SE,138,4.0,6.0,64,0.00,,---,0.00,VWS V14.01,2013-02-22 13:30:00,
2013-02-22 08:34:00,29.4,18.7,30.33,SE,138,3.0,4.0,64,0.00,,---,0.00,VWS V14.01,2013-02-22 13:34:00,
2013-02-22 08:35:00,29.4,18.7,30.34,SE,124,5.0,7.0,64,0.00,,---,0.00,VWS V14.01,2013-02-22 13:35:00,
2013-02-22 08:39:00,29.4,18.7,30.34,SE,138,3.0,4.0,64,0.00,,---,0.00,VWS V14.01,2013-02-22 13:39:00,
2013-02-22 08:40:00,29.4,18.4,30.34,SE,130,5.0,6.0,63,0.00,,---,0.00,VWS V14.01,2013-02-22 13:40:00,
2013-02-22 08:44:00,29.4,18.4,30.34,SE,132,5.0,6.0,63,0.00,,---,0.00,VWS V14.01,2013-02-22 13:44:00,
2013-02-22 08:45:00,29.4,18.0,30.34,ESE,117,3.0,6.0,62,0.00,,---,0.00,VWS V14.01,2013-02-22 13:45:00,
2013-02-22 08:49:00,29.4,18.4,30.34,ESE,113,2.0,6.0,63,0.00,,---,0.00,VWS V14.01,2013-02-22 13:49:00,
2013-02-22 08:50:00,29.5,18.1,30.34,ESE,111,3.0,7.0,62,0.00,,---,0.00,VWS V14.01,2013-02-22 13:50:00,
2013-02-22 08:54:00,29.5,18.5,30.34,ESE,104,5.0,7.0,63,0.00,,---,0.00,VWS V14.01,2013-02-22 13:54:00,
2013-02-22 08:55:00,29.5,18.1,30.34,ESE,109,4.0,6.0,62,0.00,,---,0.00,VWS V14.01,2013-02-22 13:55:00,
2013-02-22 08:59:00,29.5,18.1,30.34,ESE,109,5.0,6.0,62,0.00,,---,0.00,VWS V14.01,2013-02-22 13:59:00,
2013-02-22 09:00:00,29.5,18.1,30.34,ESE,113,3.0,7.0,62,0.00,,---,0.00,VWS V14.01,2013-02-22 14:00:00,
2013-02-22 09:04:00,29.5,18.1,30.34,ESE,110,7.0,7.0,62,0.00,,---,0.00,VWS V14.01,2013-02-22 14:04:00,
2013-02-22 09:05:00,29.5,19.2,30.34,SE,130,5.0,7.0,65,0.00,,---,0.00,VWS V14.01,2013-02-22 14:05:00,
2013-02-22 09:09:00,29.5,18.8,30.34,ESE,113,4.0,4.0,64,0.00,,---,0.00,VWS V14.01,2013-02-22 14:09:00,
2013-02-22 09:10:00,29.5,19.6,30.34,ESE,116,4.0,8.0,66,0.00,,---,0.00,VWS V14.01,2013-02-22 14:10:00,
2013-02-22 09:14:00,29.5,19.6,30.34,SE,130,6.0,6.0,66,0.00,,---,0.00,VWS V14.01,2013-02-22 14:14:00,
2013-02-22 09:15:00,29.4,19.5,30.34,SE,130,3.0,6.0,66,0.00,,---,0.00,VWS V14.01,2013-02-22 14:15:00,
2013-02-22 09:19:00,29.5,19.2,30.34,SE,130,4.0,6.0,65,0.00,,---,0.00,VWS V14.01,2013-02-22 14:19:00,
2013-02-22 09:20:00,29.4,19.5,30.34,SE,130,3.0,6.0,66,0.00,,---,0.00,VWS V14.01,2013-02-22 14:20:00,
2013-02-22 09:24:00,29.4,19.8,30.34,SE,130,4.0,4.0,67,0.00,,---,0.00,VWS V14.01,2013-02-22 14:24:00,
2013-02-22 09:25:00,29.4,19.5,30.34,SE,130,3.0,5.0,66,0.00,,---,0.00,VWS V14.01,2013-02-22 14:25:00,
2013-02-22 09:29:00,29.4,19.5,30.34,SE,130,4.0,4.0,66,0.00,,---,0.00,VWS V14.01,2013-02-22 14:29:00,
2013-02-22 09:30:00,29.2,18.9,30.33,SE,130,2.0,4.0,65,0.00,,---,0.00,VWS V14.01,2013-02-22 14:30:00,
2013-02-22 09:34:00,29.2,18.9,30.34,SE,130,3.0,3.0,65,0.00,,---,0.00,VWS V14.01,2013-02-22 14:34:00,
2013-02-22 09:35:00,29.2,19.3,30.33,SE,130,1.0,5.0,66,0.00,,---,0.00,VWS V14.01,2013-02-22 14:35:00,
2013-02-22 09:39:00,29.2,18.9,30.33,SE,130,2.0,3.0,65,0.00,,---,0.00,VWS V14.01,2013-02-22 14:39:00,
2013-02-22 09:40:00,29.2,18.9,30.33,SE,130,0.0,3.0,65,0.00,,---,0.00,VWS V14.01,2013-02-22 14:40:00,
2013-02-22 09:44:00,29.2,18.9,30.33,SE,130,0.0,2.0,65,0.00,,---,0.00,VWS V14.01,2013-02-22 14:44:00,
2013-02-22 09:45:00,29.2,19.3,30.34,SE,130,2.0,5.0,66,0.00,,---,0.00,VWS V14.01,2013-02-22 14:45:00,
2013-02-22 09:49:00,29.2,18.9,30.33,SE,130,1.0,2.0,65,0.00,,---,0.00,VWS V14.01,2013-02-22 14:49:00,
2013-02-22 09:50:00,29.2,19.3,30.34,NE,44,1.0,3.0,66,0.00,,---,0.00,VWS V14.01,2013-02-22 14:50:00,
2013-02-22 09:54:00,29.2,19.6,30.34,South,184,1.0,2.0,67,0.00,,---,0.00,VWS V14.01,2013-02-22 14:54:00,
2013-02-22 09:55:00,29.2,19.3,30.34,NE,44,1.0,1.0,66,0.00,,---,0.00,VWS V14.01,2013-02-22 14:55:00,
2013-02-22 09:59:00,29.2,19.3,30.34,NE,44,0.0,1.0,66,0.00,,---,0.00,VWS V14.01,2013-02-22 14:59:00,
2013-02-22 10:00:00,29.2,19.3,30.34,NE,44,0.0,2.0,66,0.00,,---,0.00,VWS V14.01,2013-02-22 15:00:00,
2013-02-22 10:04:00,29.2,19.3,30.34,NE,44,1.0,2.0,66,0.00,,---,0.00,VWS V14.01,2013-02-22 15:04:00,
2013-02-22 10:05:00,29.2,19.6,30.34,NE,50,3.0,3.0,67,0.00,,---,0.00,VWS V14.01,2013-02-22 15:05:00,
2013-02-22 10:09:00,29.2,19.3,30.34,NE,44,0.0,0.0,66,0.00,,---,0.00,VWS V14.01,2013-02-22 15:09:00,
2013-02-22 10:10:00,29.2,19.6,30.34,ENE,59,3.0,4.0,67,0.00,,---,0.00,VWS V14.01,2013-02-22 15:10:00,
2013-02-22 10:14:00,29.2,19.6,30.34,ENE,58,2.0,4.0,67,0.00,,---,0.00,VWS V14.01,2013-02-22 15:14:00,
2013-02-22 10:15:00,29.4,19.8,30.35,ENE,59,3.0,4.0,67,0.00,,---,0.00,VWS V14.01,2013-02-22 15:15:00,
2013-02-22 10:19:00,29.4,19.8,30.34,ENE,59,2.0,3.0,67,0.00,,---,0.00,VWS V14.01,2013-02-22 15:19:00,
2013-02-22 10:20:00,29.4,20.2,30.35,ENE,59,0.0,3.0,68,0.00,,---,0.00,VWS V14.01,2013-02-22 15:20:00,
2013-02-22 10:24:00,29.4,20.2,30.35,ENE,59,1.0,3.0,68,0.00,,---,0.00,VWS V14.01,2013-02-22 15:24:00,
2013-02-22 10:25:00,29.5,20.3,30.35,ENE,59,2.0,3.0,68,0.00,,---,0.00,VWS V14.01,2013-02-22 15:25:00,
2013-02-22 10:29:00,29.4,20.2,30.35,ENE,59,2.0,3.0,68,0.00,,---,0.00,VWS V14.01,2013-02-22 15:29:00,
2013-02-22 10:30:00,29.5,20.3,30.34,East,90,2.0,4.0,68,0.00,,---,0.00,VWS V14.01,2013-02-22 15:30:00,
2013-02-22 10:34:00,29.5,20.3,30.35,ENE,59,1.0,3.0,68,0.00,,---,0.00,VWS V14.01,2013-02-22 15:34:00,
2013-02-22 10:35:00,29.5,20.6,30.34,East,90,2.0,4.0,69,0.00,,---,0.00,VWS V14.01,2013-02-22 15:35:00,
2013-02-22 10:39:00,29.5,20.3,30.34,East,90,2.0,3.0,68,0.00,,---,0.00,VWS V14.01,2013-02-22 15:39:00,
2013-02-22 10:40:00,29.5,20.9,30.34,SSE,153,4.0,5.0,70,0.00,,---,0.00,VWS V14.01,2013-02-22 15:40:00,
2013-02-22 10:44:00,29.5,20.9,30.34,East,101,3.0,4.0,70,0.00,,---,0.00,VWS V14.01,2013-02-22 15:44:00,
2013-02-22 10:45:00,29.5,20.6,30.34,SSE,153,4.0,5.0,69,0.00,,---,0.00,VWS V14.01,2013-02-22 15:45:00,
2013-02-22 10:49:00,29.5,20.6,30.34,SSE,153,3.0,4.0,69,0.00,,---,0.00,VWS V14.01,2013-02-22 15:49:00,
2013-02-22 10:50:00,29.5,20.6,30.34,SSE,153,2.0,5.0,69,0.00,,---,0.00,VWS V14.01,2013-02-22 15:50:00,
2013-02-22 10:54:00,29.5,20.6,30.34,SSE,153,3.0,5.0,69,0.00,,---,0.00,VWS V14.01,2013-02-22 15:54:00,
2013-02-22 10:55:00,29.7,20.5,30.34,SSE,153,3.0,4.0,68,0.00,,---,0.00,VWS V14.01,2013-02-22 15:55:00,
2013-02-22 10:59:00,29.5,20.3,30.34,SSE,153,2.0,3.0,68,0.00,,---,0.00,VWS V14.01,2013-02-22 15:59:00,
2013-02-22 11:00:00,29.7,20.5,30.33,SSE,153,0.0,4.0,68,0.00,,---,0.00,VWS V14.01,2013-02-22 16:00:00,
2013-02-22 11:04:00,29.7,20.5,30.34,SSE,153,1.0,3.0,68,0.00,,---,0.00,VWS V14.01,2013-02-22 16:04:00,
2013-02-22 11:05:00,29.8,20.5,30.33,SSE,153,2.0,5.0,68,0.00,,---,0.00,VWS V14.01,2013-02-22 16:05:00,
2013-02-22 11:09:00,29.7,20.5,30.33,SSE,153,4.0,5.0,68,0.00,,---,0.00,VWS V14.01,2013-02-22 16:09:00,
2013-02-22 11:10:00,29.8,20.9,30.33,SSE,153,2.0,4.0,69,0.00,,---,0.00,VWS V14.01,2013-02-22 16:10:00,
2013-02-22 11:14:00,29.8,20.5,30.33,SSE,153,1.0,2.0,68,0.00,,---,0.00,VWS V14.01,2013-02-22 16:14:00,
2013-02-22 11:15:00,29.8,20.5,30.33,SSE,153,0.0,3.0,68,0.00,,---,0.00,VWS V14.01,2013-02-22 16:15:00,
2013-02-22 11:19:00,29.8,20.9,30.33,SSE,153,1.0,3.0,69,0.00,,---,0.00,VWS V14.01,2013-02-22 16:19:00,
2013-02-22 11:20:00,29.8,20.5,30.33,South,184,0.0,0.0,68,0.00,,---,0.00,VWS V14.01,2013-02-22 16:20:00,
2013-02-22 11:24:00,29.8,20.5,30.33,South,184,0.0,0.0,68,0.00,,---,0.00,VWS V14.01,2013-02-22 16:24:00,
2013-02-22 11:25:00,30.0,20.7,30.33,SSE,150,3.0,4.0,68,0.00,,---,0.00,VWS V14.01,2013-02-22 16:25:00,
2013-02-22 11:29:00,29.8,20.5,30.33,South,184,0.0,0.0,68,0.00,,---,0.00,VWS V14.01,2013-02-22 16:29:00,
2013-02-22 11:30:00,30.1,20.8,30.33,SSE,150,2.0,3.0,68,0.00,,---,0.00,VWS V14.01,2013-02-22 16:30:00,
2013-02-22 11:34:00,30.0,20.7,30.33,SSE,150,1.0,3.0,68,0.00,,---,0.00,VWS V14.01,2013-02-22 16:34:00,
2013-02-22 11:35:00,30.6,21.0,30.33,SSE,151,0.0,3.0,67,0.00,,---,0.00,VWS V14.01,2013-02-22 16:35:00,
2013-02-22 11:39:00,30.3,21.0,30.33,SSE,150,1.0,3.0,68,0.00,,---,0.00,VWS V14.01,2013-02-22 16:39:00,
2013-02-22 11:40:00,30.9,21.6,30.33,SE,142,3.0,6.0,68,0.00,,---,0.00,VWS V14.01,2013-02-22 16:40:00,
2013-02-22 11:44:00,30.6,21.3,30.33,SSE,151,0.0,1.0,68,0.00,,---,0.00,VWS V14.01,2013-02-22 16:44:00,
2013-02-22 11:45:00,31.0,21.7,30.33,SE,142,2.0,4.0,68,0.00,,---,0.00,VWS V14.01,2013-02-22 16:45:00,
2013-02-22 11:49:00,30.9,21.6,30.33,SE,142,4.0,4.0,68,0.00,,---,0.00,VWS V14.01,2013-02-22 16:49:00,
2013-02-22 11:50:00,31.3,21.3,30.33,South,182,0.0,5.0,66,0.00,,---,0.00,VWS V14.01,2013-02-22 16:50:00,
2013-02-22 11:54:00,31.2,21.2,30.33,SE,142,3.0,4.0,66,0.00,,---,0.00,VWS V14.01,2013-02-22 16:54:00,
2013-02-22 11:55:00,31.5,21.1,30.33,South,182,3.0,4.0,65,0.00,,---,0.00,VWS V14.01,2013-02-22 16:55:00,
2013-02-22 11:58:00,31.5,21.5,30.33,South,182,2.0,3.0,66,0.00,,---,0.00,VWS V14.01,2013-02-22 16:58:00,
2013-02-22 12:00:00,31.6,21.6,30.32,SSW,208,4.0,6.0,66,0.00,,---,0.00,VWS V14.01,2013-02-22 17:00:00,
2013-02-22 12:03:00,31.6,21.2,30.33,South,182,3.0,4.0,65,0.00,,---,0.00,VWS V14.01,2013-02-22 17:03:00,
2013-02-22 12:05:00,31.5,21.5,30.32,SSW,202,1.0,7.0,66,0.00,,---,0.00,VWS V14.01,2013-02-22 17:05:00,
2013-02-22 12:08:00,31.6,21.6,30.32,SSW,208,2.0,4.0,66,0.00,,---,0.00,VWS V14.01,2013-02-22 17:08:00,
2013-02-22 12:10:00,31.5,21.8,30.32,SSW,204,3.0,5.0,67,0.00,,---,0.00,VWS V14.01,2013-02-22 17:10:00,
2013-02-22 12:13:00,31.5,21.5,30.32,SSW,202,3.0,3.0,66,0.00,,---,0.00,VWS V14.01,2013-02-22 17:13:00,
2013-02-22 12:15:00,31.3,22.0,30.31,SSW,203,1.0,5.0,68,0.00,,---,0.00,VWS V14.01,2013-02-22 17:15:00,
2013-02-22 12:18:00,31.5,21.5,30.32,SSW,204,1.0,3.0,66,0.00,,---,0.00,VWS V14.01,2013-02-22 17:18:00,
2013-02-22 12:20:00,31.3,22.3,30.31,SSW,206,4.0,4.0,69,0.00,,---,0.00,VWS V14.01,2013-02-22 17:20:00,
2013-02-22 12:23:00,31.3,21.6,30.31,SSW,203,0.0,2.0,67,0.00,,---,0.00,VWS V14.01,2013-02-22 17:23:00,
2013-02-22 12:25:00,31.3,22.0,30.31,SW,217,0.0,5.0,68,0.00,,---,0.00,VWS V14.01,2013-02-22 17:25:00,
2013-02-22 12:28:00,31.3,22.3,30.31,SSW,207,3.0,4.0,69,0.00,,---,0.00,VWS V14.01,2013-02-22 17:28:00,
2013-02-22 12:30:00,31.3,22.3,30.31,SW,217,2.0,5.0,69,0.00,,---,0.00,VWS V14.01,2013-02-22 17:30:00,
2013-02-22 12:33:00,31.2,21.9,30.31,SW,217,1.0,1.0,68,0.00,,---,0.00,VWS V14.01,2013-02-22 17:33:00,
2013-02-22 12:35:00,31.3,22.3,30.31,SW,217,3.0,3.0,69,0.00,,---,0.00,VWS V14.01,2013-02-22 17:35:00,
2013-02-22 12:38:00,31.3,22.3,30.31,SW,217,1.0,2.0,69,0.00,,---,0.00,VWS V14.01,2013-02-22 17:38:00,
2013-02-22 12:40:00,31.3,22.0,30.31,SSW,196,0.0,4.0,68,0.00,,---,0.00,VWS V14.01,2013-02-22 17:40:00,
2013-02-22 12:43:00,31.3,22.3,30.31,SSW,196,2.0,4.0,69,0.00,,---,0.00,VWS V14.01,2013-02-22 17:43:00,
2013-02-22 12:45:00,31.2,21.9,30.30,SSW,196,2.0,2.0,68,0.00,,---,0.00,VWS V14.01,2013-02-22 17:45:00,
2013-02-22 12:48:00,31.3,22.0,30.31,SSW,196,0.0,0.0,68,0.00,,---,0.00,VWS V14.01,2013-02-22 17:48:00,
2013-02-22 12:50:00,31.3,22.0,30.30,SSW,196,0.0,3.0,68,0.00,,---,0.00,VWS V14.01,2013-02-22 17:50:00,
2013-02-22 12:53:00,31.2,21.9,30.30,SSW,196,2.0,2.0,68,0.00,,---,0.00,VWS V14.01,2013-02-22 17:53:00,
2013-02-22 12:55:00,31.5,21.8,30.30,SSW,196,3.0,4.0,67,0.00,,---,0.00,VWS V14.01,2013-02-22 17:55:00,
2013-02-22 12:58:00,31.3,22.0,30.30,SSW,196,0.0,0.0,68,0.00,,---,0.00,VWS V14.01,2013-02-22 17:58:00,
2013-02-22 13:00:00,31.5,21.5,30.30,SSW,196,0.0,3.0,66,0.00,,---,0.00,VWS V14.01,2013-02-22 18:00:00,
2013-02-22 13:03:00,31.5,21.8,30.30,SSW,196,0.0,3.0,67,0.00,,---,0.00,VWS V14.01,2013-02-22 18:03:00,
2013-02-22 13:05:00,31.6,22.3,30.30,SSW,196,3.0,4.0,68,0.00,,---,0.00,VWS V14.01,2013-02-22 18:05:00,
2013-02-22 13:08:00,31.5,21.5,30.30,SSW,196,0.0,0.0,66,0.00,,---,0.00,VWS V14.01,2013-02-22 18:08:00,
2013-02-22 13:10:00,31.8,22.1,30.30,SSW,196,2.0,4.0,67,0.00,,---,0.00,VWS V14.01,2013-02-22 18:10:00,
2013-02-22 13:13:00,31.6,22.3,30.30,SSW,196,3.0,4.0,68,0.00,,---,0.00,VWS V14.01,2013-02-22 18:13:00,
2013-02-22 13:15:00,31.6,21.6,30.29,SSW,196,0.0,2.0,66,0.00,,---,0.00,VWS V14.01,2013-02-22 18:15:00,
2013-02-22 13:18:00,31.8,22.1,30.30,SSW,196,2.0,2.0,67,0.00,,---,0.00,VWS V14.01,2013-02-22 18:18:00,
2013-02-22 13:20:00,31.6,21.6,30.29,SSW,196,0.0,0.0,66,0.00,,---,0.00,VWS V14.01,2013-02-22 18:20:00,
2013-02-22 13:23:00,31.6,21.6,30.29,SSW,196,0.0,0.0,66,0.00,,---,0.00,VWS V14.01,2013-02-22 18:23:00,
2013-02-22 13:25:00,31.8,22.1,30.29,SSW,196,2.0,3.0,67,0.00,,---,0.00,VWS V14.01,2013-02-22 18:25:00,
2013-02-22 13:28:00,31.6,21.6,30.29,SSW,196,0.0,1.0,66,0.00,,---,0.00,VWS V14.01,2013-02-22 18:28:00,
2013-02-22 13:30:00,31.9,22.2,30.28,SSW,196,0.0,2.0,67,0.00,,---,0.00,VWS V14.01,2013-02-22 18:30:00,
2013-02-22 13:33:00,31.8,22.1,30.29,SSW,196,1.0,2.0,67,0.00,,---,0.00,VWS V14.01,2013-02-22 18:33:00,
2013-02-22 13:35:00,32.0,21.9,30.28,SSW,196,0.0,3.0,66,0.00,,---,0.00,VWS V14.01,2013-02-22 18:35:00,
2013-02-22 13:38:00,31.9,22.2,30.28,SSW,196,2.0,2.0,67,0.00,,---,0.00,VWS V14.01,2013-02-22 18:38:00,
2013-02-22 13:40:00,32.2,22.1,30.28,SSW,196,2.0,3.0,66,0.00,,---,0.00,VWS V14.01,2013-02-22 18:40:00,
2013-02-22 13:43:00,32.0,21.9,30.28,SSW,196,2.0,2.0,66,0.00,,---,0.00,VWS V14.01,2013-02-22 18:43:00,
2013-02-22 13:45:00,32.2,22.1,30.28,SSW,196,0.0,2.0,66,0.00,,---,0.00,VWS V14.01,2013-02-22 18:45:00,
2013-02-22 13:48:00,32.2,22.1,30.28,SSW,196,1.0,2.0,66,0.00,,---,0.00,VWS V14.01,2013-02-22 18:48:00,
2013-02-22 13:50:00,32.3,22.6,30.28,SSW,195,4.0,5.0,67,0.00,,---,0.00,VWS V14.01,2013-02-22 18:50:00,
2013-02-22 13:53:00,32.2,22.1,30.28,SSW,196,1.0,1.0,66,0.00,,---,0.00,VWS V14.01,2013-02-22 18:53:00,
2013-02-22 13:55:00,32.2,22.1,30.28,SSW,195,4.0,4.0,66,0.00,,---,0.00,VWS V14.01,2013-02-22 18:55:00,
2013-02-22 13:58:00,32.3,22.6,30.28,SSW,195,2.0,4.0,67,0.00,,---,0.00,VWS V14.01,2013-02-22 18:58:00,
2013-02-22 14:00:00,32.2,22.5,30.28,SSW,195,2.0,4.0,67,0.00,,---,0.00,VWS V14.01,2013-02-22 19:00:00,
2013-02-22 14:03:00,32.2,22.1,30.28,SSW,195,2.0,4.0,66,0.00,,---,0.00,VWS V14.01,2013-02-22 19:03:00,
2013-02-22 14:05:00,32.5,23.1,30.28,SSW,195,0.0,3.0,68,0.00,,---,0.00,VWS V14.01,2013-02-22 19:05:00,
2013-02-22 14:08:00,32.3,22.6,30.28,SSW,195,1.0,2.0,67,0.00,,---,0.00,VWS V14.01,2013-02-22 19:08:00,
2013-02-22 14:10:00,32.8,23.1,30.28,SSW,195,1.0,2.0,67,0.00,,---,0.00,VWS V14.01,2013-02-22 19:10:00,
2013-02-22 14:13:00,32.5,23.1,30.28,SSW,195,2.0,2.0,68,0.00,,---,0.00,VWS V14.01,2013-02-22 19:13:00,
2013-02-22 14:15:00,32.8,22.3,30.27,SSW,195,2.0,2.0,65,0.00,,---,0.00,VWS V14.01,2013-02-22 19:15:00,
2013-02-22 14:18:00,32.8,23.1,30.28,SSW,195,1.0,2.0,67,0.00,,---,0.00,VWS V14.01,2013-02-22 19:18:00,
2013-02-22 14:20:00,32.9,22.4,30.27,SSW,195,0.0,3.0,65,0.00,,---,0.00,VWS V14.01,2013-02-22 19:20:00,
2013-02-22 14:23:00,32.8,22.3,30.27,SSW,195,2.0,2.0,65,0.00,,---,0.00,VWS V14.01,2013-02-22 19:23:00,
2013-02-22 14:25:00,33.2,23.5,30.27,SSW,195,4.0,5.0,67,0.00,,---,0.00,VWS V14.01,2013-02-22 19:25:00,
2013-02-22 14:28:00,32.9,22.4,30.27,SSW,195,0.0,1.0,65,0.00,,---,0.00,VWS V14.01,2013-02-22 19:28:00,
2013-02-22 14:30:00,33.4,23.3,30.26,South,186,2.0,6.0,66,0.00,,---,0.00,VWS V14.01,2013-02-22 19:30:00,
2013-02-22 14:33:00,33.2,23.5,30.27,SSW,195,2.0,4.0,67,0.00,,---,0.00,VWS V14.01,2013-02-22 19:33:00,
2013-02-22 14:35:00,33.2,22.7,30.26,South,186,1.0,2.0,65,0.00,,---,0.00,VWS V14.01,2013-02-22 19:35:00,
2013-02-22 14:38:00,33.4,23.3,30.26,South,186,2.0,2.0,66,0.00,,---,0.00,VWS V14.01,2013-02-22 19:38:00,
2013-02-22 14:40:00,33.2,23.1,30.26,South,186,3.0,4.0,66,0.00,,---,0.00,VWS V14.01,2013-02-22 19:40:00,
2013-02-22 14:43:00,33.2,22.7,30.26,South,186,0.0,1.0,65,0.00,,---,0.00,VWS V14.01,2013-02-22 19:43:00,
2013-02-22 14:45:00,33.2,22.7,30.26,South,186,3.0,4.0,65,0.00,,---,0.00,VWS V14.01,2013-02-22 19:45:00,
2013-02-22 14:48:00,33.2,23.1,30.26,South,186,2.0,4.0,66,0.00,,---,0.00,VWS V14.01,2013-02-22 19:48:00,
2013-02-22 14:50:00,33.2,23.1,30.26,South,186,1.0,4.0,66,0.00,,---,0.00,VWS V14.01,2013-02-22 19:50:00,
2013-02-22 14:53:00,33.2,22.7,30.26,South,186,3.0,4.0,65,0.00,,---,0.00,VWS V14.01,2013-02-22 19:53:00,
2013-02-22 14:55:00,33.1,23.0,30.26,South,186,1.0,3.0,66,0.00,,---,0.00,VWS V14.01,2013-02-22 19:55:00,
2013-02-22 14:58:00,33.2,23.1,30.26,South,186,1.0,1.0,66,0.00,,---,0.00,VWS V14.01,2013-02-22 19:58:00,
2013-02-22 15:00:00,33.1,23.0,30.26,South,171,2.0,3.0,66,0.00,,---,0.00,VWS V14.01,2013-02-22 20:00:00,
2013-02-22 15:03:00,33.1,23.0,30.26,South,171,3.0,3.0,66,0.00,,---,0.00,VWS V14.01,2013-02-22 20:03:00,
2013-02-22 15:05:00,33.1,23.0,30.26,South,171,4.0,4.0,66,0.00,,---,0.00,VWS V14.01,2013-02-22 20:05:00,
2013-02-22 15:08:00,33.1,23.0,30.26,South,171,1.0,1.0,66,0.00,,---,0.00,VWS V14.01,2013-02-22 20:08:00,
2013-02-22 15:10:00,33.1,22.6,30.26,South,171,4.0,4.0,65,0.00,,---,0.00,VWS V14.01,2013-02-22 20:10:00,
2013-02-22 15:13:00,33.1,23.0,30.26,South,171,2.0,4.0,66,0.00,,---,0.00,VWS V14.01,2013-02-22 20:13:00,
2013-02-22 15:15:00,33.2,23.1,30.26,South,171,4.0,6.0,66,0.00,,---,0.00,VWS V14.01,2013-02-22 20:15:00,
2013-02-22 15:18:00,33.1,22.6,30.26,South,171,4.0,5.0,65,0.00,,---,0.00,VWS V14.01,2013-02-22 20:18:00,
2013-02-22 15:20:00,33.2,23.1,30.26,South,171,4.0,4.0,66,0.00,,---,0.00,VWS V14.01,2013-02-22 20:20:00,
2013-02-22 15:23:00,33.2,23.1,30.26,South,171,4.0,4.0,66,0.00,,---,0.00,VWS V14.01,2013-02-22 20:23:00,
2013-02-22 15:25:00,33.2,23.1,30.26,SE,143,5.0,7.0,66,0.00,,---,0.00,VWS V14.01,2013-02-22 20:25:00,
2013-02-22 15:28:00,33.2,23.1,30.26,South,171,3.0,4.0,66,0.00,,---,0.00,VWS V14.01,2013-02-22 20:28:00,
2013-02-22 15:30:00,33.2,22.7,30.26,SE,142,2.0,5.0,65,0.00,,---,0.00,VWS V14.01,2013-02-22 20:30:00,
2013-02-22 15:33:00,33.2,23.5,30.26,SE,143,5.0,5.0,67,0.00,,---,0.00,VWS V14.01,2013-02-22 20:33:00,
2013-02-22 15:35:00,33.4,23.3,30.26,South,190,5.0,8.0,66,0.00,,---,0.00,VWS V14.01,2013-02-22 20:35:00,
2013-02-22 15:38:00,33.2,22.7,30.26,SE,142,3.0,3.0,65,0.00,,---,0.00,VWS V14.01,2013-02-22 20:38:00,
2013-02-22 15:40:00,33.4,23.3,30.26,South,190,0.0,6.0,66,0.00,,---,0.00,VWS V14.01,2013-02-22 20:40:00,
2013-02-22 15:43:00,33.4,23.3,30.26,South,190,6.0,6.0,66,0.00,,---,0.00,VWS V14.01,2013-02-22 20:43:00,
2013-02-22 15:45:00,33.4,23.3,30.26,South,190,2.0,4.0,66,0.00,,---,0.00,VWS V14.01,2013-02-22 20:45:00,
2013-02-22 15:48:00,33.4,23.3,30.26,South,190,1.0,1.0,66,0.00,,---,0.00,VWS V14.01,2013-02-22 20:48:00,
2013-02-22 15:50:00,33.4,23.3,30.26,SSW,192,1.0,4.0,66,0.00,,---,0.00,VWS V14.01,2013-02-22 20:50:00,
2013-02-22 15:53:00,33.4,23.3,30.26,South,190,2.0,2.0,66,0.00,,---,0.00,VWS V14.01,2013-02-22 20:53:00,
2013-02-22 15:55:00,33.4,23.3,30.26,SSW,192,4.0,5.0,66,0.00,,---,0.00,VWS V14.01,2013-02-22 20:55:00,
2013-02-22 15:58:00,33.4,23.3,30.26,SSW,192,0.0,1.0,66,0.00,,---,0.00,VWS V14.01,2013-02-22 20:58:00,
2013-02-22 16:00:00,33.4,22.9,30.26,SSW,196,1.0,4.0,65,0.00,,---,0.00,VWS V14.01,2013-02-22 21:00:00,
2013-02-22 16:03:00,33.4,23.3,30.26,SSW,192,4.0,4.0,66,0.00,,---,0.00,VWS V14.01,2013-02-22 21:03:00,
2013-02-22 16:05:00,33.4,22.9,30.26,SSW,196,2.0,3.0,65,0.00,,---,0.00,VWS V14.01,2013-02-22 21:05:00,
2013-02-22 16:08:00,33.4,22.9,30.26,SSW,196,1.0,1.0,65,0.00,,---,0.00,VWS V14.01,2013-02-22 21:08:00,
2013-02-22 16:10:00,33.4,22.9,30.26,SSW,196,2.0,4.0,65,0.00,,---,0.00,VWS V14.01,2013-02-22 21:10:00,
2013-02-22 16:13:00,33.4,22.9,30.26,SSW,196,2.0,2.0,65,0.00,,---,0.00,VWS V14.01,2013-02-22 21:13:00,
2013-02-22 16:15:00,33.4,23.3,30.26,SSW,196,3.0,5.0,66,0.00,,---,0.00,VWS V14.01,2013-02-22 21:15:00,
2013-02-22 16:18:00,33.4,22.9,30.26,SSW,196,2.0,2.0,65,0.00,,---,0.00,VWS V14.01,2013-02-22 21:18:00,
2013-02-22 16:20:00,33.4,23.3,30.26,SSW,196,1.0,5.0,66,0.00,,---,0.00,VWS V14.01,2013-02-22 21:20:00,
2013-02-22 16:23:00,33.4,23.3,30.26,SSW,196,3.0,3.0,66,0.00,,---,0.00,VWS V14.01,2013-02-22 21:23:00,
2013-02-22 16:25:00,33.4,23.6,30.26,SSW,196,2.0,2.0,67,0.00,,---,0.00,VWS V14.01,2013-02-22 21:25:00,
2013-02-22 16:28:00,33.4,23.3,30.26,SSW,196,1.0,1.0,66,0.00,,---,0.00,VWS V14.01,2013-02-22 21:28:00,
2013-02-22 16:30:00,33.4,23.3,30.26,SSW,196,1.0,2.0,66,0.00,,---,0.00,VWS V14.01,2013-02-22 21:30:00,
2013-02-22 16:33:00,33.4,23.6,30.26,SSW,196,2.0,2.0,67,0.00,,---,0.00,VWS V14.01,2013-02-22 21:33:00,
2013-02-22 16:35:00,33.2,23.1,30.26,SSW,196,0.0,1.0,66,0.00,,---,0.00,VWS V14.01,2013-02-22 21:35:00,
2013-02-22 16:38:00,33.4,23.3,30.26,SSW,196,0.0,1.0,66,0.00,,---,0.00,VWS V14.01,2013-02-22 21:38:00,
2013-02-22 16:40:00,33.2,23.1,30.26,SSW,196,0.0,1.0,66,0.00,,---,0.00,VWS V14.01,2013-02-22 21:40:00,
2013-02-22 16:43:00,33.2,23.1,30.26,SSW,196,0.0,0.0,66,0.00,,---,0.00,VWS V14.01,2013-02-22 21:43:00,
2013-02-22 16:45:00,33.2,23.1,30.25,SSW,196,0.0,0.0,66,0.00,,---,0.00,VWS V14.01,2013-02-22 21:45:00,
2013-02-22 16:48:00,33.2,23.1,30.26,SSW,196,0.0,0.0,66,0.00,,---,0.00,VWS V14.01,2013-02-22 21:48:00,
2013-02-22 16:50:00,33.4,23.6,30.25,SSW,196,1.0,3.0,67,0.00,,---,0.00,VWS V14.01,2013-02-22 21:50:00,
2013-02-22 16:53:00,33.2,23.1,30.25,SSW,196,0.0,0.0,66,0.00,,---,0.00,VWS V14.01,2013-02-22 21:53:00,
2013-02-22 16:55:00,33.4,23.3,30.25,SSW,196,0.0,2.0,66,0.00,,---,0.00,VWS V14.01,2013-02-22 21:55:00,
2013-02-22 16:58:00,33.4,23.6,30.25,SSW,196,1.0,3.0,67,0.00,,---,0.00,VWS V14.01,2013-02-22 21:58:00,
2013-02-22 17:00:00,33.2,22.7,30.25,SSW,196,0.0,0.0,65,0.00,,---,0.00,VWS V14.01,2013-02-22 22:00:00,
2013-02-22 17:03:00,33.4,23.3,30.25,SSW,196,0.0,2.0,66,0.00,,---,0.00,VWS V14.01,2013-02-22 22:03:00,
2013-02-22 17:05:00,33.2,23.1,30.25,SSW,196,0.0,0.0,66,0.00,,---,0.00,VWS V14.01,2013-02-22 22:05:00,
2013-02-22 17:08:00,33.2,22.7,30.25,SSW,196,0.0,0.0,65,0.00,,---,0.00,VWS V14.01,2013-02-22 22:08:00,
2013-02-22 17:10:00,33.2,23.1,30.25,SSW,196,0.0,0.0,66,0.00,,---,0.00,VWS V14.01,2013-02-22 22:10:00,
2013-02-22 17:13:00,33.2,23.1,30.25,SSW,196,0.0,0.0,66,0.00,,---,0.00,VWS V14.01,2013-02-22 22:13:00,
2013-02-22 17:15:00,33.2,23.1,30.25,SSW,196,0.0,1.0,66,0.00,,---,0.00,VWS V14.01,2013-02-22 22:15:00,
2013-02-22 17:18:00,33.2,23.1,30.25,SSW,196,0.0,0.0,66,0.00,,---,0.00,VWS V14.01,2013-02-22 22:18:00,
2013-02-22 17:20:00,33.2,23.1,30.25,SSW,196,0.0,1.0,66,0.00,,---,0.00,VWS V14.01,2013-02-22 22:20:00,
2013-02-22 17:23:00,33.2,23.1,30.25,SSW,196,0.0,1.0,66,0.00,,---,0.00,VWS V14.01,2013-02-22 22:23:00,
2013-02-22 17:25:00,33.2,23.1,30.25,SSW,196,0.0,0.0,66,0.00,,---,0.00,VWS V14.01,2013-02-22 22:25:00,
2013-02-22 17:28:00,33.2,23.1,30.25,SSW,196,0.0,1.0,66,0.00,,---,0.00,VWS V14.01,2013-02-22 22:28:00,
2013-02-22 17:30:00,33.2,23.1,30.25,SSW,196,1.0,1.0,66,0.00,,---,0.00,VWS V14.01,2013-02-22 22:30:00,
2013-02-22 17:33:00,33.2,23.1,30.25,SSW,196,0.0,0.0,66,0.00,,---,0.00,VWS V14.01,2013-02-22 22:33:00,
2013-02-22 17:35:00,33.1,23.0,30.25,SSW,196,0.0,2.0,66,0.00,,---,0.00,VWS V14.01,2013-02-22 22:35:00,
2013-02-22 17:38:00,33.2,23.1,30.25,SSW,196,0.0,1.0,66,0.00,,---,0.00,VWS V14.01,2013-02-22 22:38:00,
2013-02-22 17:40:00,33.1,23.0,30.25,SSW,196,0.0,0.0,66,0.00,,---,0.00,VWS V14.01,2013-02-22 22:40:00,
2013-02-22 17:43:00,33.1,23.0,30.25,SSW,196,0.0,2.0,66,0.00,,---,0.00,VWS V14.01,2013-02-22 22:43:00,
2013-02-22 17:45:00,33.1,23.0,30.24,SSW,196,0.0,0.0,66,0.00,,---,0.00,VWS V14.01,2013-02-22 22:45:00,
2013-02-22 17:48:00,33.1,23.0,30.25,SSW,196,0.0,0.0,66,0.00,,---,0.00,VWS V14.01,2013-02-22 22:48:00,
2013-02-22 17:50:00,32.9,23.2,30.24,SSW,196,0.0,0.0,67,0.00,,---,0.00,VWS V14.01,2013-02-22 22:50:00,
2013-02-22 17:53:00,33.1,23.0,30.24,SSW,196,0.0,0.0,66,0.00,,---,0.00,VWS V14.01,2013-02-22 22:53:00,
2013-02-22 17:55:00,32.9,23.2,30.24,SSW,196,0.0,1.0,67,0.00,,---,0.00,VWS V14.01,2013-02-22 22:55:00,
2013-02-22 17:58:00,32.9,23.2,30.24,SSW,196,0.0,0.0,67,0.00,,---,0.00,VWS V14.01,2013-02-22 22:58:00,
2013-02-22 18:00:00,32.9,23.2,30.25,SSW,196,0.0,1.0,67,0.00,,---,0.00,VWS V14.01,2013-02-22 23:00:00,
2013-02-22 18:03:00,32.9,23.2,30.24,SSW,196,0.0,1.0,67,0.00,,---,0.00,VWS V14.01,2013-02-22 23:03:00,
2013-02-22 18:05:00,32.9,23.5,30.25,SSW,196,0.0,1.0,68,0.00,,---,0.00,VWS V14.01,2013-02-22 23:05:00,
2013-02-22 18:08:00,32.9,23.2,30.25,SSW,196,0.0,1.0,67,0.00,,---,0.00,VWS V14.01,2013-02-22 23:08:00,
2013-02-22 18:10:00,32.8,23.1,30.25,SSW,196,0.0,1.0,67,0.00,,---,0.00,VWS V14.01,2013-02-22 23:10:00,
2013-02-22 18:13:00,32.9,23.2,30.25,SSW,196,0.0,1.0,67,0.00,,---,0.00,VWS V14.01,2013-02-22 23:13:00,
2013-02-22 18:15:00,32.8,23.4,30.25,SSW,196,0.0,0.0,68,0.00,,---,0.00,VWS V14.01,2013-02-22 23:15:00,
2013-02-22 18:18:00,32.8,23.1,30.25,SSW,196,0.0,1.0,67,0.00,,---,0.00,VWS V14.01,2013-02-22 23:18:00,
2013-02-22 18:20:00,32.8,23.4,30.25,SSW,196,0.0,1.0,68,0.00,,---,0.00,VWS V14.01,2013-02-22 23:20:00,
2013-02-22 18:23:00,32.8,23.4,30.25,SSW,196,0.0,0.0,68,0.00,,---,0.00,VWS V14.01,2013-02-22 23:23:00,
2013-02-22 18:25:00,32.8,23.4,30.25,SSW,196,0.0,2.0,68,0.00,,---,0.00,VWS V14.01,2013-02-22 23:25:00,
2013-02-22 18:28:00,32.8,23.4,30.25,SSW,196,0.0,1.0,68,0.00,,---,0.00,VWS V14.01,2013-02-22 23:28:00,
2013-02-22 18:30:00,32.8,23.4,30.24,SSW,196,1.0,3.0,68,0.00,,---,0.00,VWS V14.01,2013-02-22 23:30:00,
2013-02-22 18:33:00,32.8,23.4,30.25,SSW,196,0.0,2.0,68,0.00,,---,0.00,VWS V14.01,2013-02-22 23:33:00,
2013-02-22 18:35:00,32.8,23.4,30.24,SSW,196,0.0,2.0,68,0.00,,---,0.00,VWS V14.01,2013-02-22 23:35:00,
2013-02-22 18:38:00,32.8,23.4,30.24,SSW,196,2.0,3.0,68,0.00,,---,0.00,VWS V14.01,2013-02-22 23:38:00,
2013-02-22 18:40:00,32.8,23.8,30.24,SSW,196,1.0,3.0,69,0.00,,---,0.00,VWS V14.01,2013-02-22 23:40:00,
2013-02-22 18:43:00,32.8,23.4,30.24,SSW,196,1.0,2.0,68,0.00,,---,0.00,VWS V14.01,2013-02-22 23:43:00,
2013-02-22 18:45:00,32.8,24.1,30.24,SSW,196,0.0,2.0,70,0.00,,---,0.00,VWS V14.01,2013-02-22 23:45:00,
2013-02-22 18:48:00,32.8,23.8,30.24,SSW,196,0.0,3.0,69,0.00,,---,0.00,VWS V14.01,2013-02-22 23:48:00,
2013-02-22 18:50:00,32.6,23.9,30.24,SSW,196,1.0,1.0,70,0.00,,---,0.00,VWS V14.01,2013-02-22 23:50:00,
2013-02-22 18:53:00,32.8,24.1,30.24,SSW,196,0.0,2.0,70,0.00,,---,0.00,VWS V14.01,2013-02-22 23:53:00,
2013-02-22 18:55:00,32.6,23.6,30.24,SSW,196,0.0,1.0,69,0.00,,---,0.00,VWS V14.01,2013-02-22 23:55:00,
2013-02-22 18:58:00,32.6,23.9,30.24,SSW,196,0.0,0.0,70,0.00,,---,0.00,VWS V14.01,2013-02-22 23:58:00,
2013-02-22 19:00:00,32.6,23.9,30.25,SSW,196,0.0,1.0,70,0.00,,---,0.00,VWS V14.01,2013-02-23 00:00:00,
2013-02-22 19:03:00,32.6,23.6,30.24,SSW,196,0.0,1.0,69,0.00,,---,0.00,VWS V14.01,2013-02-23 00:03:00,
2013-02-22 19:05:00,32.6,23.9,30.25,SSW,196,0.0,0.0,70,0.00,,---,0.00,VWS V14.01,2013-02-23 00:05:00,
2013-02-22 19:08:00,32.6,23.9,30.25,SSW,196,0.0,1.0,70,0.00,,---,0.00,VWS V14.01,2013-02-23 00:08:00,
2013-02-22 19:10:00,32.6,23.9,30.25,SSW,196,2.0,2.0,70,0.00,,---,0.00,VWS V14.01,2013-02-23 00:10:00,
2013-02-22 19:12:00,32.6,23.9,30.25,SSW,196,0.0,0.0,70,0.00,,---,0.00,VWS V14.01,2013-02-23 00:12:00,
2013-02-22 19:15:00,32.6,23.9,30.25,SSW,196,0.0,2.0,70,0.00,,---,0.00,VWS V14.01,2013-02-23 00:15:00,
2013-02-22 19:17:00,32.6,23.9,30.25,SSW,196,1.0,2.0,70,0.00,,---,0.00,VWS V14.01,2013-02-23 00:17:00,
2013-02-22 19:20:00,32.6,24.2,30.25,SSW,196,1.0,1.0,71,0.00,,---,0.00,VWS V14.01,2013-02-23 00:20:00,
2013-02-22 19:22:00,32.6,23.9,30.25,SSW,196,0.0,2.0,70,0.00,,---,0.00,VWS V14.01,2013-02-23 00:22:00,
2013-02-22 19:25:00,32.6,24.2,30.25,SSW,196,0.0,1.0,71,0.00,,---,0.00,VWS V14.01,2013-02-23 00:25:00,
2013-02-22 19:27:00,32.6,24.2,30.25,SSW,196,1.0,1.0,71,0.00,,---,0.00,VWS V14.01,2013-02-23 00:27:00,
2013-02-22 19:30:00,32.5,24.2,30.25,SSW,196,0.0,0.0,71,0.00,,---,0.00,VWS V14.01,2013-02-23 00:30:00,
2013-02-22 19:32:00,32.6,24.2,30.25,SSW,196,0.0,1.0,71,0.00,,---,0.00,VWS V14.01,2013-02-23 00:32:00,
2013-02-22 19:35:00,32.5,24.2,30.25,SSW,196,0.0,0.0,71,0.00,,---,0.00,VWS V14.01,2013-02-23 00:35:00,
2013-02-22 19:37:00,32.5,24.2,30.25,SSW,196,0.0,0.0,71,0.00,,---,0.00,VWS V14.01,2013-02-23 00:37:00,
2013-02-22 19:40:00,32.5,24.2,30.25,SSW,196,0.0,0.0,71,0.00,,---,0.00,VWS V14.01,2013-02-23 00:40:00,
2013-02-22 19:42:00,32.5,24.2,30.25,SSW,196,0.0,0.0,71,0.00,,---,0.00,VWS V14.01,2013-02-23 00:42:00,
2013-02-22 19:45:00,32.5,23.8,30.25,SSW,196,0.0,0.0,70,0.00,,---,0.00,VWS V14.01,2013-02-23 00:45:00,
2013-02-22 19:47:00,32.5,24.2,30.25,SSW,196,0.0,0.0,71,0.00,,---,0.00,VWS V14.01,2013-02-23 00:47:00,
2013-02-22 19:50:00,32.5,24.2,30.25,SSW,196,0.0,0.0,71,0.00,,---,0.00,VWS V14.01,2013-02-23 00:50:00,
2013-02-22 19:52:00,32.5,23.8,30.25,SSW,196,0.0,0.0,70,0.00,,---,0.00,VWS V14.01,2013-02-23 00:52:00,
2013-02-22 19:55:00,32.5,24.2,30.25,SSW,196,0.0,0.0,71,0.00,,---,0.00,VWS V14.01,2013-02-23 00:55:00,
2013-02-22 19:57:00,32.5,24.2,30.25,SSW,196,0.0,0.0,71,0.00,,---,0.00,VWS V14.01,2013-02-23 00:57:00,
2013-02-22 20:00:00,32.5,24.5,30.24,SSW,196,0.0,0.0,72,0.00,,---,0.00,VWS V14.01,2013-02-23 01:00:00,
2013-02-22 20:02:00,32.5,24.2,30.25,SSW,196,0.0,0.0,71,0.00,,---,0.00,VWS V14.01,2013-02-23 01:02:00,
2013-02-22 20:05:00,32.5,24.8,30.24,SSW,196,0.0,0.0,73,0.00,,---,0.00,VWS V14.01,2013-02-23 01:05:00,
2013-02-22 20:07:00,32.5,24.5,30.24,SSW,196,0.0,0.0,72,0.00,,---,0.00,VWS V14.01,2013-02-23 01:07:00,
2013-02-22 20:10:00,32.5,24.5,30.24,SSW,196,0.0,0.0,72,0.00,,---,0.00,VWS V14.01,2013-02-23 01:10:00,
2013-02-22 20:12:00,32.5,24.8,30.24,SSW,196,0.0,0.0,73,0.00,,---,0.00,VWS V14.01,2013-02-23 01:12:00,
2013-02-22 20:15:00,32.5,24.8,30.23,SSW,196,0.0,0.0,73,0.00,,---,0.00,VWS V14.01,2013-02-23 01:15:00,
2013-02-22 20:17:00,32.5,24.5,30.24,SSW,196,0.0,0.0,72,0.00,,---,0.00,VWS V14.01,2013-02-23 01:17:00,
2013-02-22 20:20:00,32.5,24.8,30.23,SSW,196,0.0,0.0,73,0.00,,---,0.00,VWS V14.01,2013-02-23 01:20:00,
2013-02-22 20:22:00,32.5,24.8,30.23,SSW,196,0.0,0.0,73,0.00,,---,0.00,VWS V14.01,2013-02-23 01:22:00,
2013-02-22 20:25:00,32.5,24.8,30.23,SSW,196,0.0,0.0,73,0.00,,---,0.00,VWS V14.01,2013-02-23 01:25:00,
2013-02-22 20:27:00,32.5,24.8,30.23,SSW,196,0.0,0.0,73,0.00,,---,0.00,VWS V14.01,2013-02-23 01:27:00,
2013-02-22 20:30:00,32.5,25.1,30.23,SSW,196,0.0,0.0,74,0.00,,---,0.00,VWS V14.01,2013-02-23 01:30:00,
2013-02-22 20:32:00,32.5,24.8,30.23,SSW,196,0.0,0.0,73,0.00,,---,0.00,VWS V14.01,2013-02-23 01:32:00,
2013-02-22 20:35:00,32.3,24.6,30.23,SSW,196,0.0,1.0,73,0.00,,---,0.00,VWS V14.01,2013-02-23 01:35:00,
2013-02-22 20:37:00,32.5,25.1,30.23,SSW,196,0.0,0.0,74,0.00,,---,0.00,VWS V14.01,2013-02-23 01:37:00,
2013-02-22 20:40:00,32.3,24.6,30.23,SSW,196,0.0,0.0,73,0.00,,---,0.00,VWS V14.01,2013-02-23 01:40:00,
2013-02-22 20:42:00,32.3,24.6,30.23,SSW,196,0.0,1.0,73,0.00,,---,0.00,VWS V14.01,2013-02-23 01:42:00,
2013-02-22 20:45:00,32.3,24.6,30.23,SSW,196,0.0,0.0,73,0.00,,---,0.00,VWS V14.01,2013-02-23 01:45:00,
2013-02-22 20:47:00,32.3,24.6,30.23,SSW,196,0.0,0.0,73,0.00,,---,0.00,VWS V14.01,2013-02-23 01:47:00,
2013-02-22 20:50:00,32.3,25.0,30.23,SSW,196,0.0,0.0,74,0.00,,---,0.00,VWS V14.01,2013-02-23 01:50:00,
2013-02-22 20:52:00,32.3,24.6,30.23,SSW,196,0.0,0.0,73,0.00,,---,0.00,VWS V14.01,2013-02-23 01:52:00,
2013-02-22 20:55:00,32.3,25.0,30.23,SSW,196,0.0,0.0,74,0.00,,---,0.00,VWS V14.01,2013-02-23 01:55:00,
2013-02-22 20:57:00,32.3,25.0,30.23,SSW,196,0.0,0.0,74,0.00,,---,0.00,VWS V14.01,2013-02-23 01:57:00,
2013-02-22 21:00:00,32.3,25.3,30.23,SSW,196,0.0,0.0,75,0.00,,---,0.00,VWS V14.01,2013-02-23 02:00:00,
2013-02-22 21:02:00,32.3,25.0,30.23,SSW,196,0.0,0.0,74,0.00,,---,0.00,VWS V14.01,2013-02-23 02:02:00,
2013-02-22 21:05:00,32.3,25.3,30.23,SSW,196,0.0,0.0,75,0.00,,---,0.00,VWS V14.01,2013-02-23 02:05:00,
2013-02-22 21:07:00,32.3,25.3,30.23,SSW,196,0.0,0.0,75,0.00,,---,0.00,VWS V14.01,2013-02-23 02:07:00,
2013-02-22 21:10:00,32.2,24.9,30.23,SSW,196,0.0,0.0,74,0.00,,---,0.00,VWS V14.01,2013-02-23 02:10:00,
2013-02-22 21:12:00,32.3,25.3,30.23,SSW,196,0.0,0.0,75,0.00,,---,0.00,VWS V14.01,2013-02-23 02:12:00,
2013-02-22 21:15:00,32.2,24.9,30.23,SSW,196,0.0,0.0,74,0.00,,---,0.00,VWS V14.01,2013-02-23 02:15:00,
2013-02-22 21:17:00,32.2,24.9,30.23,SSW,196,0.0,0.0,74,0.00,,---,0.00,VWS V14.01,2013-02-23 02:17:00,
2013-02-22 21:20:00,32.2,24.9,30.23,SSW,196,0.0,0.0,74,0.00,,---,0.00,VWS V14.01,2013-02-23 02:20:00,
2013-02-22 21:22:00,32.2,24.9,30.23,SSW,196,0.0,0.0,74,0.00,,---,0.00,VWS V14.01,2013-02-23 02:22:00,
2013-02-22 21:25:00,32.2,25.2,30.23,SSW,196,0.0,0.0,75,0.00,,---,0.00,VWS V14.01,2013-02-23 02:25:00,
2013-02-22 21:27:00,32.2,24.9,30.23,SSW,196,0.0,0.0,74,0.00,,---,0.00,VWS V14.01,2013-02-23 02:27:00,
2013-02-22 21:30:00,32.2,24.9,30.24,SSW,196,0.0,0.0,74,0.00,,---,0.00,VWS V14.01,2013-02-23 02:30:00,
2013-02-22 21:32:00,32.2,25.2,30.23,SSW,196,0.0,0.0,75,0.00,,---,0.00,VWS V14.01,2013-02-23 02:32:00,
2013-02-22 21:35:00,32.2,24.9,30.24,SSW,196,0.0,0.0,74,0.00,,---,0.00,VWS V14.01,2013-02-23 02:35:00,
2013-02-22 21:37:00,32.2,24.9,30.24,SSW,196,0.0,0.0,74,0.00,,---,0.00,VWS V14.01,2013-02-23 02:37:00,
2013-02-22 21:40:00,32.2,24.9,30.24,SSW,196,0.0,0.0,74,0.00,,---,0.00,VWS V14.01,2013-02-23 02:40:00,
2013-02-22 21:42:00,32.2,24.9,30.24,SSW,196,0.0,0.0,74,0.00,,---,0.00,VWS V14.01,2013-02-23 02:42:00,
2013-02-22 21:45:00,32.2,24.5,30.23,SSW,196,0.0,0.0,73,0.00,,---,0.00,VWS V14.01,2013-02-23 02:45:00,
2013-02-22 21:47:00,32.2,24.9,30.24,SSW,196,0.0,0.0,74,0.00,,---,0.00,VWS V14.01,2013-02-23 02:47:00,
2013-02-22 21:50:00,32.2,25.2,30.23,SSW,196,0.0,0.0,75,0.00,,---,0.00,VWS V14.01,2013-02-23 02:50:00,
2013-02-22 21:52:00,32.2,24.5,30.23,SSW,196,0.0,0.0,73,0.00,,---,0.00,VWS V14.01,2013-02-23 02:52:00,
2013-02-22 21:55:00,32.2,25.2,30.23,SSW,196,0.0,0.0,75,0.00,,---,0.00,VWS V14.01,2013-02-23 02:55:00,
2013-02-22 21:57:00,32.2,25.2,30.23,SSW,196,0.0,0.0,75,0.00,,---,0.00,VWS V14.01,2013-02-23 02:57:00,
2013-02-22 22:00:00,32.2,25.5,30.23,SSW,196,0.0,0.0,76,0.00,,---,0.00,VWS V14.01,2013-02-23 03:00:00,
2013-02-22 22:02:00,32.2,25.2,30.23,SSW,196,0.0,0.0,75,0.00,,---,0.00,VWS V14.01,2013-02-23 03:02:00,
2013-02-22 22:05:00,32.2,25.5,30.23,SSW,196,0.0,0.0,76,0.00,,---,0.00,VWS V14.01,2013-02-23 03:05:00,
2013-02-22 22:07:00,32.2,25.5,30.23,SSW,196,0.0,0.0,76,0.00,,---,0.00,VWS V14.01,2013-02-23 03:07:00,
2013-02-22 22:10:00,32.2,25.5,30.23,SSW,196,0.0,0.0,76,0.00,,---,0.00,VWS V14.01,2013-02-23 03:10:00,
2013-02-22 22:12:00,32.2,25.5,30.23,SSW,196,0.0,0.0,76,0.00,,---,0.00,VWS V14.01,2013-02-23 03:12:00,
2013-02-22 22:15:00,32.2,25.8,30.23,SSW,196,0.0,0.0,77,0.00,,---,0.00,VWS V14.01,2013-02-23 03:15:00,
2013-02-22 22:17:00,32.2,25.5,30.23,SSW,196,0.0,0.0,76,0.00,,---,0.00,VWS V14.01,2013-02-23 03:17:00,
2013-02-22 22:20:00,32.2,25.5,30.23,SSW,196,0.0,0.0,76,0.00,,---,0.00,VWS V14.01,2013-02-23 03:20:00,
2013-02-22 22:22:00,32.2,25.8,30.23,SSW,196,0.0,0.0,77,0.00,,---,0.00,VWS V14.01,2013-02-23 03:22:00,
2013-02-22 22:25:00,32.0,25.0,30.23,SSW,196,0.0,0.0,75,0.00,,---,0.00,VWS V14.01,2013-02-23 03:25:00,
2013-02-22 22:27:00,32.2,25.5,30.23,SSW,196,0.0,0.0,76,0.00,,---,0.00,VWS V14.01,2013-02-23 03:27:00,
2013-02-22 22:30:00,32.0,25.0,30.23,SSW,196,0.0,0.0,75,0.00,,---,0.00,VWS V14.01,2013-02-23 03:30:00,
2013-02-22 22:32:00,32.0,25.3,30.23,SSW,196,0.0,0.0,76,0.00,,---,0.00,VWS V14.01,2013-02-23 03:32:00,
2013-02-22 22:35:00,32.0,25.3,30.23,SSW,196,0.0,0.0,76,0.00,,---,0.00,VWS V14.01,2013-02-23 03:35:00,
2013-02-22 22:37:00,32.0,25.0,30.23,SSW,196,0.0,0.0,75,0.00,,---,0.00,VWS V14.01,2013-02-23 03:37:00,
2013-02-22 22:40:00,32.0,25.0,30.23,SSW,196,0.0,0.0,75,0.00,,---,0.00,VWS V14.01,2013-02-23 03:40:00,
2013-02-22 22:42:00,32.0,25.3,30.23,SSW,196,0.0,0.0,76,0.00,,---,0.00,VWS V14.01,2013-02-23 03:42:00,
2013-02-22 22:45:00,32.0,25.0,30.22,SSW,196,0.0,0.0,75,0.00,,---,0.00,VWS V14.01,2013-02-23 03:45:00,
2013-02-22 22:47:00,32.0,25.0,30.23,SSW,196,0.0,0.0,75,0.00,,---,0.00,VWS V14.01,2013-02-23 03:47:00,
2013-02-22 22:50:00,32.0,25.0,30.22,SSW,196,0.0,0.0,75,0.00,,---,0.00,VWS V14.01,2013-02-23 03:50:00,
2013-02-22 22:52:00,32.0,25.0,30.22,SSW,196,0.0,0.0,75,0.00,,---,0.00,VWS V14.01,2013-02-23 03:52:00,
2013-02-22 22:55:00,32.0,25.0,30.22,SSW,196,0.0,0.0,75,0.00,,---,0.00,VWS V14.01,2013-02-23 03:55:00,
2013-02-22 22:57:00,32.0,25.0,30.22,SSW,196,0.0,0.0,75,0.00,,---,0.00,VWS V14.01,2013-02-23 03:57:00,
2013-02-22 23:00:00,32.0,25.3,30.23,SSW,196,0.0,0.0,76,0.00,,---,0.00,VWS V14.01,2013-02-23 04:00:00,
2013-02-22 23:02:00,32.0,25.0,30.22,SSW,196,0.0,0.0,75,0.00,,---,0.00,VWS V14.01,2013-02-23 04:02:00,
2013-02-22 23:05:00,32.0,25.6,30.23,SSW,196,0.0,1.0,77,0.00,,---,0.00,VWS V14.01,2013-02-23 04:05:00,
2013-02-22 23:07:00,32.0,25.3,30.23,SSW,196,0.0,0.0,76,0.00,,---,0.00,VWS V14.01,2013-02-23 04:07:00,
2013-02-22 23:10:00,32.0,25.6,30.23,SSW,196,0.0,0.0,77,0.00,,---,0.00,VWS V14.01,2013-02-23 04:10:00,
2013-02-22 23:12:00,32.0,25.6,30.23,SSW,196,0.0,1.0,77,0.00,,---,0.00,VWS V14.01,2013-02-23 04:12:00,
2013-02-22 23:15:00,32.0,25.6,30.22,SSW,196,0.0,0.0,77,0.00,,---,0.00,VWS V14.01,2013-02-23 04:15:00,
2013-02-22 23:17:00,32.0,25.6,30.23,SSW,196,0.0,0.0,77,0.00,,---,0.00,VWS V14.01,2013-02-23 04:17:00,
2013-02-22 23:20:00,32.0,25.6,30.22,SSW,196,0.0,0.0,77,0.00,,---,0.00,VWS V14.01,2013-02-23 04:20:00,
2013-02-22 23:22:00,32.0,25.6,30.22,SSW,196,0.0,0.0,77,0.00,,---,0.00,VWS V14.01,2013-02-23 04:22:00,
2013-02-22 23:25:00,31.9,25.5,30.22,SSW,196,0.0,0.0,77,0.00,,---,0.00,VWS V14.01,2013-02-23 04:25:00,
2013-02-22 23:27:00,32.0,25.6,30.22,SSW,196,0.0,0.0,77,0.00,,---,0.00,VWS V14.01,2013-02-23 04:27:00,
2013-02-22 23:30:00,31.9,25.5,30.21,SSW,196,0.0,0.0,77,0.00,,---,0.00,VWS V14.01,2013-02-23 04:30:00,
2013-02-22 23:32:00,31.9,25.5,30.22,SSW,196,0.0,0.0,77,0.00,,---,0.00,VWS V14.01,2013-02-23 04:32:00,
2013-02-22 23:35:00,31.9,25.5,30.21,SSW,196,0.0,0.0,77,0.00,,---,0.00,VWS V14.01,2013-02-23 04:35:00,
2013-02-22 23:37:00,31.9,25.5,30.21,SSW,196,0.0,0.0,77,0.00,,---,0.00,VWS V14.01,2013-02-23 04:37:00,
2013-02-22 23:40:00,31.9,25.5,30.21,SSW,196,0.0,0.0,77,0.00,,---,0.00,VWS V14.01,2013-02-23 04:40:00,
2013-02-22 23:42:00,31.9,25.5,30.21,SSW,196,0.0,0.0,77,0.00,,---,0.00,VWS V14.01,2013-02-23 04:42:00,
2013-02-22 23:45:00,31.9,25.5,30.21,SSW,196,0.0,0.0,77,0.00,,---,0.00,VWS V14.01,2013-02-23 04:45:00,
2013-02-22 23:47:00,31.9,25.5,30.21,SSW,196,0.0,0.0,77,0.00,,---,0.00,VWS V14.01,2013-02-23 04:47:00,
2013-02-22 23:50:00,31.9,25.2,30.21,SSW,196,0.0,0.0,76,0.00,,---,0.00,VWS V14.01,2013-02-23 04:50:00,
2013-02-22 23:52:00,31.9,25.5,30.21,SSW,196,0.0,0.0,77,0.00,,---,0.00,VWS V14.01,2013-02-23 04:52:00,
2013-02-22 23:55:00,31.8,25.4,30.21,SSW,196,0.0,0.0,77,0.00,,---,0.00,VWS V14.01,2013-02-23 04:55:00,
2013-02-22 23:57:00,31.9,25.2,30.21,SSW,196,0.0,0.0,76,0.00,,---,0.00,VWS V14.01,2013-02-23 04:57:00,